| time (UTC) | temp C | wind direction | speed KPH | gust KPH | rain 1hr cm | rain 24hr cm | rain mn cm | humidity % | barometer mb |
| 20260503072552 | 5 | 261 | 1.6 | 11.3 | 0.00 | 0.48 | 0.00 | 91 | 1008.8 |
| 20260503072052 | 5 | 267 | 1.6 | 11.3 | 0.00 | 0.48 | 0.00 | 91 | 1008.8 |
| 20260503071549 | 5 | 281 | 1.6 | 11.3 | 0.00 | 0.48 | 0.00 | 91 | 1008.7 |
| 20260503071048 | 5 | 267 | 1.6 | 6.4 | 0.00 | 0.48 | 0.00 | 91 | 1008.9 |
| 20260503070550 | 5 | 266 | 1.6 | 6.4 | 0.00 | 0.48 | 0.00 | 91 | 1009.0 |
| 20260503060108 | 5 | 283 | 1.6 | 6.4 | 0.00 | 0.48 | 0.00 | 91 | 1009.8 |
| 20260503055038 | 6 | 285 | 0.0 | 6.4 | 0.00 | 0.48 | 0.00 | 91 | 1009.6 |
| 20260503054554 | 6 | 281 | 1.6 | 9.7 | 0.00 | 0.48 | 0.00 | 91 | 1009.8 |
| 20260503054039 | 6 | 298 | 1.6 | 8.0 | 0.00 | 0.48 | 0.00 | 91 | 1009.8 |
| 20260503053536 | 6 | 283 | 3.2 | 8.0 | 0.00 | 0.48 | 0.00 | 91 | 1009.9 |
| 20260503053040 | 6 | 321 | 0.0 | 4.8 | 0.00 | 0.48 | 0.00 | 91 | 1010.0 |
| 20260503052534 | 6 | 322 | 0.0 | 3.2 | 0.00 | 0.48 | 0.00 | 91 | 1009.9 |
| 20260503052032 | 6 | 322 | 0.0 | 4.8 | 0.00 | 0.48 | 0.00 | 91 | 1010.0 |
| 20260503051532 | 6 | 359 | 0.0 | 4.8 | 0.00 | 0.48 | 0.00 | 91 | 1010.0 |
| 20260503051030 | 6 | 322 | 0.0 | 4.8 | 0.00 | 0.48 | 0.00 | 91 | 1010.1 |
| 20260503050529 | 6 | 322 | 0.0 | 6.4 | 0.00 | 0.48 | 0.00 | 91 | 1010.1 |
| 20260503050028 | 7 | 322 | 1.6 | 4.8 | 0.00 | 0.48 | 0.00 | 91 | 1010.1 |
| 20260503045528 | 7 | 322 | 0.0 | 3.2 | 0.00 | 0.48 | 0.00 | 91 | 1010.2 |
| 20260503045027 | 7 | 322 | 0.0 | 3.2 | 0.00 | 0.48 | 0.00 | 91 | 1010.4 |
| 20260503044526 | 7 | 322 | 0.0 | 3.2 | 0.00 | 0.48 | 0.00 | 91 | 1010.5 |
| 20260503044025 | 7 | 359 | 0.0 | 1.6 | 0.00 | 0.48 | 0.00 | 91 | 1010.5 |
| 20260503043524 | 7 | 322 | 0.0 | 6.4 | 0.00 | 0.48 | 0.00 | 91 | 1010.6 |
| 20260503043025 | 7 | 322 | 0.0 | 6.4 | 0.00 | 0.48 | 0.00 | 91 | 1010.7 |
| 20260503042524 | 7 | 322 | 0.0 | 4.8 | 0.00 | 0.48 | 0.00 | 91 | 1010.7 |
| 20260503042023 | 7 | 322 | 0.0 | 6.4 | 0.00 | 0.48 | 0.00 | 91 | 1010.7 |
| 20260503041522 | 7 | 322 | 1.6 | 6.4 | 0.00 | 0.48 | 0.00 | 91 | 1010.8 |
| 20260503041024 | 7 | 17 | 0.0 | 3.2 | 0.00 | 0.48 | 0.00 | 91 | 1010.8 |
| 20260503040520 | 7 | 17 | 0.0 | 1.6 | 0.00 | 0.48 | 0.00 | 91 | 1010.8 |
| 20260503040031 | 7 | 17 | 0.0 | 0.0 | 0.00 | 0.48 | 0.00 | 91 | 1010.8 |
| 20260503035520 | 7 | 16 | 0.0 | 0.0 | 0.00 | 0.48 | 0.48 | 91 | 1010.9 |
| 20260503035020 | 7 | 17 | 0.0 | 0.0 | 0.00 | 0.48 | 0.48 | 91 | 1010.9 |
| 20260503034520 | 7 | 17 | 0.0 | 3.2 | 0.00 | 0.48 | 0.48 | 91 | 1010.8 |
| 20260503034020 | 7 | 17 | 0.0 | 3.2 | 0.00 | 0.48 | 0.48 | 91 | 1011.0 |
| 20260503033519 | 7 | 17 | 0.0 | 3.2 | 0.00 | 0.48 | 0.48 | 91 | 1010.9 |
| 20260503033121 | 7 | 18 | 0.0 | 3.2 | 0.00 | 0.48 | 0.48 | 91 | 1010.9 |
| 20260503032519 | 7 | 18 | 0.0 | 3.2 | 0.00 | 0.48 | 0.48 | 91 | 1010.9 |
| 20260503032019 | 7 | 17 | 0.0 | 0.0 | 0.00 | 0.48 | 0.48 | 91 | 1010.8 |
| 20260503031519 | 7 | 17 | 0.0 | 0.0 | 0.00 | 0.48 | 0.48 | 91 | 1010.8 |
| 20260503031019 | 7 | 17 | 0.0 | 0.0 | 0.00 | 0.48 | 0.48 | 91 | 1010.9 |
| 20260503030518 | 7 | 17 | 0.0 | 1.6 | 0.00 | 0.48 | 0.48 | 91 | 1010.9 |
| 20260503030022 | 7 | 17 | 0.0 | 1.6 | 0.00 | 0.48 | 0.48 | 91 | 1010.9 |
| 20260503025518 | 8 | 17 | 0.0 | 1.6 | 0.00 | 0.48 | 0.48 | 91 | 1011.0 |
| 20260503025018 | 8 | 17 | 0.0 | 3.2 | 0.00 | 0.48 | 0.48 | 91 | 1011.0 |
| 20260503024518 | 8 | 17 | 0.0 | 3.2 | 0.00 | 0.48 | 0.48 | 91 | 1011.1 |
| 20260503024018 | 8 | 17 | 0.0 | 1.6 | 0.00 | 0.48 | 0.48 | 91 | 1011.1 |
| 20260503023518 | 8 | 18 | 0.0 | 3.2 | 0.00 | 0.48 | 0.48 | 91 | 1011.2 |
| 20260503023018 | 8 | 17 | 0.0 | 3.2 | 0.00 | 0.48 | 0.48 | 91 | 1011.2 |
| 20260503022517 | 8 | 17 | 0.0 | 1.6 | 0.00 | 0.48 | 0.48 | 91 | 1011.2 |
| 20260503022017 | 8 | 17 | 0.0 | 1.6 | 0.00 | 0.48 | 0.48 | 91 | 1011.2 |
| 20260503021517 | 8 | 17 | 0.0 | 1.6 | 0.00 | 0.48 | 0.48 | 91 | 1011.2 |
| 20260503021017 | 8 | 18 | 0.0 | 3.2 | 0.00 | 0.48 | 0.48 | 91 | 1011.2 |
| 20260503020517 | 8 | 17 | 0.0 | 3.2 | 0.00 | 0.48 | 0.48 | 91 | 1011.3 |
| 20260503020017 | 8 | 17 | 0.0 | 3.2 | 0.00 | 0.48 | 0.48 | 91 | 1011.3 |
| 20260503015517 | 8 | 18 | 0.0 | 1.6 | 0.00 | 0.48 | 0.48 | 91 | 1011.1 |
| 20260503015020 | 8 | 17 | 0.0 | 3.2 | 0.00 | 0.48 | 0.48 | 91 | 1011.1 |
| 20260503014516 | 8 | 18 | 0.0 | 4.8 | 0.00 | 0.48 | 0.48 | 90 | 1010.9 |
| 20260503014016 | 8 | 17 | 1.6 | 4.8 | 0.00 | 0.48 | 0.48 | 91 | 1010.8 |
| 20260503013516 | 8 | 325 | 0.0 | 3.2 | 0.00 | 0.48 | 0.48 | 91 | 1010.9 |
| 20260503013018 | 8 | 325 | 0.0 | 3.2 | 0.00 | 0.48 | 0.48 | 90 | 1010.9 |
| 20260503012516 | 8 | 316 | 0.0 | 3.2 | 0.00 | 0.48 | 0.48 | 90 | 1010.8 |
| 20260503012016 | 8 | 316 | 0.0 | 3.2 | 0.00 | 0.48 | 0.48 | 90 | 1010.8 |
| 20260503011521 | 8 | 317 | 0.0 | 1.6 | 0.00 | 0.48 | 0.48 | 90 | 1011.0 |
| 20260503011016 | 8 | 317 | 0.0 | 1.6 | 0.00 | 0.48 | 0.48 | 90 | 1011.1 |
| 20260503010517 | 8 | 317 | 0.0 | 0.0 | 0.00 | 0.48 | 0.48 | 90 | 1011.2 |
| 20260503010018 | 8 | 316 | 0.0 | 0.0 | 0.00 | 0.48 | 0.48 | 90 | 1011.5 |
| 20260503005514 | 8 | 317 | 0.0 | 0.0 | 0.00 | 0.48 | 0.48 | 90 | 1011.4 |
| 20260503005015 | 8 | 317 | 0.0 | 0.0 | 0.00 | 0.48 | 0.48 | 90 | 1011.3 |
| 20260503004517 | 8 | 317 | 0.0 | 0.0 | 0.00 | 0.48 | 0.48 | 90 | 1011.4 |
| 20260503004014 | 8 | 317 | 0.0 | 0.0 | 0.00 | 0.48 | 0.48 | 90 | 1011.1 |
| 20260503003514 | 9 | 359 | 0.0 | 0.0 | 0.00 | 0.48 | 0.48 | 90 | 1011.2 |
| 20260503003014 | 9 | 359 | 0.0 | 3.2 | 0.00 | 0.48 | 0.48 | 90 | 1011.2 |
| 20260503002517 | 9 | 317 | 0.0 | 3.2 | 0.00 | 0.48 | 0.48 | 90 | 1011.3 |
| 20260503002017 | 9 | 317 | 0.0 | 1.6 | 0.00 | 0.48 | 0.48 | 90 | 1011.2 |
| 20260503001514 | 9 | 316 | 0.0 | 1.6 | 0.00 | 0.48 | 0.48 | 90 | 1011.3 |
| 20260503001014 | 9 | 316 | 0.0 | 1.6 | 0.00 | 0.48 | 0.48 | 90 | 1011.3 |
| 20260503000513 | 9 | 317 | 0.0 | 0.0 | 0.00 | 0.48 | 0.48 | 90 | 1011.2 |
| 20260503000013 | 9 | 316 | 0.0 | 0.0 | 0.00 | 0.48 | 0.48 | 90 | 1011.0 |
| 20260502235512 | 9 | 359 | 0.0 | 0.0 | 0.00 | 0.48 | 0.48 | 90 | 1011.0 |
| 20260502235012 | 9 | 317 | 0.0 | 0.0 | 0.03 | 0.48 | 0.48 | 89 | 1010.9 |
| 20260502234522 | 9 | 317 | 0.0 | 3.2 | 0.03 | 0.48 | 0.48 | 89 | 1011.0 |
| 20260502234013 | 9 | 359 | 0.0 | 1.6 | 0.03 | 0.48 | 0.48 | 89 | 1010.9 |
| 20260502233513 | 9 | 317 | 0.0 | 3.2 | 0.03 | 0.48 | 0.48 | 89 | 1010.8 |
| 20260502233014 | 9 | 317 | 0.0 | 3.2 | 0.03 | 0.48 | 0.48 | 89 | 1010.8 |
| 20260502232512 | 9 | 317 | 0.0 | 0.0 | 0.03 | 0.48 | 0.48 | 89 | 1010.8 |
| 20260502232112 | 9 | 317 | 0.0 | 0.0 | 0.03 | 0.48 | 0.48 | 89 | 1010.6 |
| 20260502231510 | 9 | 316 | 0.0 | 0.0 | 0.03 | 0.48 | 0.48 | 89 | 1010.6 |
| 20260502231009 | 9 | 316 | 0.0 | 0.0 | 0.03 | 0.48 | 0.48 | 89 | 1010.6 |
| 20260502230509 | 9 | 316 | 0.0 | 1.6 | 0.03 | 0.48 | 0.48 | 89 | 1010.6 |
| 20260502230009 | 9 | 316 | 0.0 | 1.6 | 0.03 | 0.48 | 0.48 | 89 | 1010.5 |
| 20260502225508 | 9 | 316 | 0.0 | 1.6 | 0.03 | 0.46 | 0.46 | 89 | 1010.5 |
| 20260502225008 | 9 | 317 | 0.0 | 1.6 | 0.05 | 0.46 | 0.46 | 89 | 1010.5 |
| 20260502224508 | 9 | 316 | 0.0 | 1.6 | 0.08 | 0.46 | 0.46 | 88 | 1010.5 |
| 20260502224009 | 9 | 317 | 0.0 | 1.6 | 0.10 | 0.46 | 0.46 | 88 | 1010.5 |
| 20260502223508 | 9 | 359 | 0.0 | 1.6 | 0.10 | 0.46 | 0.46 | 88 | 1010.5 |
| 20260502223008 | 10 | 316 | 0.0 | 1.6 | 0.10 | 0.46 | 0.46 | 88 | 1010.5 |
| 20260502222508 | 10 | 316 | 0.0 | 3.2 | 0.10 | 0.46 | 0.46 | 88 | 1010.5 |
| 20260502222009 | 9 | 316 | 0.0 | 3.2 | 0.10 | 0.46 | 0.46 | 87 | 1010.6 |
| 20260502221507 | 10 | 316 | 0.0 | 1.6 | 0.10 | 0.46 | 0.46 | 87 | 1010.6 |
| 20260502221007 | 10 | 359 | 0.0 | 1.6 | 0.10 | 0.46 | 0.46 | 87 | 1010.6 |
| 20260502220507 | 10 | 359 | 0.0 | 1.6 | 0.10 | 0.46 | 0.46 | 86 | 1010.6 |
| 20260502220011 | 10 | 317 | 0.0 | 1.6 | 0.10 | 0.46 | 0.46 | 86 | 1010.7 |
| 20260502215507 | 10 | 359 | 0.0 | 0.0 | 0.05 | 0.41 | 0.41 | 85 | 1010.8 |
| 20260502215007 | 10 | 317 | 0.0 | 1.6 | 0.05 | 0.41 | 0.41 | 85 | 1010.7 |
| 20260502214519 | 10 | 316 | 0.0 | 3.2 | 0.03 | 0.38 | 0.38 | 84 | 1010.8 |
| 20260502214011 | 10 | 316 | 0.0 | 3.2 | 0.00 | 0.36 | 0.36 | 83 | 1010.6 |
| 20260502213507 | 10 | 317 | 0.0 | 0.0 | 0.00 | 0.36 | 0.36 | 83 | 1010.5 |
| 20260502213007 | 10 | 317 | 0.0 | 0.0 | 0.00 | 0.36 | 0.36 | 83 | 1010.5 |
| 20260502212508 | 10 | 316 | 0.0 | 1.6 | 0.00 | 0.36 | 0.36 | 82 | 1010.5 |
| 20260502212107 | 10 | 317 | 0.0 | 3.2 | 0.00 | 0.36 | 0.36 | 82 | 1010.5 |
| 20260502211512 | 10 | 316 | 0.0 | 3.2 | 0.00 | 0.36 | 0.36 | 81 | 1010.5 |
| 20260502211005 | 10 | 317 | 0.0 | 4.8 | 0.00 | 0.36 | 0.36 | 81 | 1010.4 |
| 20260502210506 | 10 | 316 | 1.6 | 6.4 | 0.00 | 0.36 | 0.36 | 81 | 1010.4 |
| 20260502210018 | 11 | 317 | 0.0 | 6.4 | 0.00 | 0.36 | 0.36 | 81 | 1010.3 |
| 20260502205505 | 11 | 315 | 1.6 | 6.4 | 0.00 | 0.36 | 0.36 | 81 | 1010.5 |
| 20260502205007 | 11 | 316 | 0.0 | 1.6 | 0.00 | 0.36 | 0.36 | 81 | 1010.5 |
| 20260502204510 | 10 | 316 | 0.0 | 3.2 | 0.00 | 0.36 | 0.36 | 81 | 1010.5 |
| 20260502204005 | 10 | 316 | 0.0 | 8.0 | 0.00 | 0.36 | 0.36 | 81 | 1010.5 |
| 20260502203504 | 10 | 316 | 3.2 | 8.0 | 0.00 | 0.36 | 0.36 | 81 | 1010.4 |
| 20260502203007 | 10 | 316 | 0.0 | 6.4 | 0.00 | 0.36 | 0.36 | 80 | 1010.4 |
| 20260502202504 | 10 | 316 | 3.2 | 6.4 | 0.00 | 0.36 | 0.36 | 80 | 1010.4 |
| 20260502202004 | 10 | 316 | 1.6 | 6.4 | 0.00 | 0.36 | 0.36 | 80 | 1010.3 |
| 20260502201507 | 11 | 291 | 3.2 | 11.3 | 0.00 | 0.36 | 0.36 | 79 | 1010.5 |
| 20260502201003 | 11 | 291 | 3.2 | 12.9 | 0.00 | 0.36 | 0.36 | 79 | 1010.5 |
| 20260502200506 | 11 | 317 | 6.4 | 12.9 | 0.00 | 0.36 | 0.36 | 78 | 1010.5 |
| 20260502200003 | 11 | 313 | 3.2 | 14.5 | 0.00 | 0.36 | 0.36 | 76 | 1010.7 |
| 20260502195506 | 11 | 315 | 6.4 | 14.5 | 0.00 | 0.36 | 0.36 | 75 | 1010.5 |
| 20260502195003 | 12 | 271 | 3.2 | 14.5 | 0.00 | 0.36 | 0.36 | 73 | 1010.5 |
| 20260502194503 | 12 | 340 | 4.8 | 14.5 | 0.00 | 0.36 | 0.36 | 71 | 1010.6 |
| 20260502194003 | 12 | 266 | 4.8 | 12.9 | 0.00 | 0.36 | 0.36 | 67 | 1010.6 |
| 20260502193503 | 13 | 218 | 1.6 | 11.3 | 0.00 | 0.36 | 0.36 | 62 | 1010.5 |
| 20260502193003 | 13 | 234 | 1.6 | 11.3 | 0.00 | 0.36 | 0.36 | 63 | 1010.5 |
| 20260502192503 | 13 | 190 | 1.6 | 12.9 | 0.00 | 0.36 | 0.36 | 65 | 1010.4 |
| 20260502192003 | 13 | 194 | 6.4 | 19.3 | 0.00 | 0.36 | 0.36 | 63 | 1010.4 |
| 20260502191600 | 13 | 131 | 4.8 | 19.3 | 0.00 | 0.36 | 0.36 | 63 | 1010.4 |
| 20260502191501 | 13 | 207 | 8.0 | 19.3 | 0.00 | 0.36 | 0.36 | 63 | 1010.4 |
| 20260502191100 | 13 | 194 | 6.4 | 16.1 | 0.00 | 0.36 | 0.36 | 64 | 1010.5 |
| 20260502190600 | 13 | 171 | 4.8 | 16.1 | 0.00 | 0.36 | 0.36 | 64 | 1010.4 |
| 20260502190100 | 13 | 210 | 1.6 | 12.9 | 0.00 | 0.36 | 0.36 | 65 | 1010.5 |
| 20260502185559 | 13 | 225 | 6.4 | 14.5 | 0.00 | 0.36 | 0.36 | 64 | 1010.5 |
| 20260502185059 | 13 | 57 | 1.6 | 14.5 | 0.00 | 0.36 | 0.36 | 65 | 1010.5 |
| 20260502184605 | 13 | 155 | 1.6 | 22.5 | 0.00 | 0.36 | 0.36 | 66 | 1010.6 |
| 20260502184058 | 13 | 108 | 8.0 | 22.5 | 0.00 | 0.36 | 0.36 | 64 | 1010.7 |
| 20260502183557 | 13 | 193 | 6.4 | 17.7 | 0.00 | 0.36 | 0.36 | 65 | 1010.8 |
| 20260502183056 | 13 | 209 | 8.0 | 17.7 | 0.00 | 0.36 | 0.36 | 64 | 1010.8 |
| 20260502182556 | 13 | 166 | 6.4 | 24.1 | 0.00 | 0.36 | 0.36 | 66 | 1010.9 |
| 20260502182056 | 13 | 127 | 4.8 | 24.1 | 0.00 | 0.36 | 0.36 | 66 | 1010.9 |
| 20260502181555 | 13 | 172 | 6.4 | 19.3 | 0.00 | 0.36 | 0.36 | 65 | 1011.0 |
| 20260502181057 | 13 | 241 | 9.7 | 19.3 | 0.00 | 0.36 | 0.36 | 65 | 1010.9 |
| 20260502180556 | 13 | 167 | 4.8 | 16.1 | 0.00 | 0.36 | 0.36 | 66 | 1010.9 |
| 20260502180107 | 13 | 189 | 3.2 | 19.3 | 0.00 | 0.36 | 0.36 | 66 | 1010.9 |
| 20260502164047 | 12 | 184 | 4.8 | 9.7 | 0.00 | 0.36 | 0.36 | 76 | 1011.8 |
| 20260502163549 | 11 | 172 | 1.6 | 12.9 | 0.00 | 0.36 | 0.36 | 78 | 1011.9 |
| 20260502163047 | 11 | 116 | 0.0 | 12.9 | 0.00 | 0.36 | 0.36 | 76 | 1011.8 |
| 20260502162547 | 11 | 116 | 4.8 | 12.9 | 0.00 | 0.36 | 0.36 | 75 | 1012.0 |
| 20260502162047 | 11 | 140 | 4.8 | 16.1 | 0.00 | 0.36 | 0.36 | 74 | 1012.1 |
| 20260502161546 | 11 | 223 | 8.0 | 16.1 | 0.00 | 0.36 | 0.36 | 73 | 1011.8 |
| 20260502161046 | 11 | 169 | 3.2 | 12.9 | 0.00 | 0.36 | 0.36 | 74 | 1011.9 |
| 20260502160546 | 12 | 262 | 4.8 | 12.9 | 0.00 | 0.36 | 0.36 | 74 | 1011.9 |
| 20260502152040 | 10 | 87 | 0.0 | 3.2 | 0.00 | 0.36 | 0.36 | 83 | 1012.0 |
| 20260502151540 | 10 | 87 | 0.0 | 4.8 | 0.00 | 0.36 | 0.36 | 84 | 1012.0 |
| 20260502151040 | 10 | 87 | 1.6 | 4.8 | 0.00 | 0.36 | 0.36 | 85 | 1012.0 |
| 20260502150539 | 10 | 87 | 0.0 | 3.2 | 0.00 | 0.36 | 0.36 | 87 | 1012.0 |
| 20260502130524 | 6 | 241 | 0.0 | 3.2 | 0.18 | 0.33 | 0.33 | 88 | 1012.6 |
| 20260502123524 | 6 | 241 | 0.0 | 3.2 | 0.13 | 0.15 | 0.15 | 87 | 1012.9 |
| 20260502123023 | 6 | 241 | 0.0 | 0.0 | 0.13 | 0.15 | 0.15 | 87 | 1012.7 |
| 20260502122524 | 6 | 241 | 0.0 | 3.2 | 0.13 | 0.15 | 0.15 | 87 | 1012.7 |
| 20260502122025 | 6 | 241 | 0.0 | 3.2 | 0.13 | 0.15 | 0.15 | 87 | 1012.7 |
| 20260502121536 | 6 | 241 | 0.0 | 1.6 | 0.13 | 0.15 | 0.15 | 86 | 1012.7 |
| 20260502121022 | 6 | 241 | 0.0 | 4.8 | 0.13 | 0.15 | 0.15 | 86 | 1012.7 |
| 20260502120523 | 6 | 241 | 0.0 | 4.8 | 0.13 | 0.15 | 0.15 | 85 | 1013.0 |
| 20260502115520 | 6 | 244 | 1.6 | 4.8 | 0.08 | 0.10 | 0.10 | 83 | 1013.2 |
| 20260502115019 | 6 | 276 | 0.0 | 9.7 | 0.05 | 0.08 | 0.08 | 82 | 1013.1 |
| 20260502114518 | 7 | 275 | 0.0 | 9.7 | 0.03 | 0.05 | 0.05 | 81 | 1012.9 |
| 20260502114017 | 7 | 264 | 3.2 | 6.4 | 0.03 | 0.05 | 0.05 | 80 | 1012.7 |
| 20260502113517 | 7 | 354 | 1.6 | 4.8 | 0.00 | 0.03 | 0.03 | 79 | 1012.1 |
| 20260502113016 | 7 | 354 | 0.0 | 3.2 | 0.03 | 0.03 | 0.03 | 79 | 1011.9 |
| 20260502112516 | 7 | 354 | 0.0 | 3.2 | 0.03 | 0.03 | 0.03 | 79 | 1011.8 |
| 20260502112017 | 7 | 354 | 0.0 | 1.6 | 0.03 | 0.03 | 0.03 | 80 | 1011.9 |
| 20260502111515 | 7 | 354 | 0.0 | 3.2 | 0.03 | 0.03 | 0.03 | 80 | 1011.9 |
| 20260502111015 | 7 | 359 | 0.0 | 3.2 | 0.03 | 0.03 | 0.03 | 81 | 1011.9 |
| 20260502110514 | 6 | 354 | 0.0 | 8.0 | 0.03 | 0.03 | 0.03 | 81 | 1011.8 |
| 20260502110013 | 6 | 354 | 1.6 | 8.0 | 0.03 | 0.03 | 0.03 | 81 | 1011.8 |
| 20260502105513 | 6 | 343 | 0.0 | 8.0 | 0.03 | 0.03 | 0.03 | 81 | 1011.8 |
| 20260502105015 | 6 | 343 | 1.6 | 8.0 | 0.03 | 0.03 | 0.03 | 82 | 1011.9 |
| 20260502104510 | 6 | 4 | 1.6 | 4.8 | 0.03 | 0.03 | 0.03 | 82 | 1011.8 |
| 20260502104008 | 6 | 41 | 0.0 | 4.8 | 0.03 | 0.03 | 0.03 | 82 | 1011.8 |
| 20260502103507 | 6 | 45 | 0.0 | 0.0 | 0.03 | 0.03 | 0.03 | 81 | 1011.8 |
| 20260502103007 | 6 | 45 | 0.0 | 0.0 | 0.00 | 0.00 | 0.00 | 80 | 1011.8 |
| 20260502102507 | 7 | 45 | 0.0 | 1.6 | 0.00 | 0.00 | 0.00 | 78 | 1011.7 |
| 20260502102006 | 7 | 45 | 0.0 | 1.6 | 0.00 | 0.00 | 0.00 | 76 | 1011.8 |
| 20260502101508 | 7 | 44 | 0.0 | 1.6 | 0.00 | 0.00 | 0.00 | 75 | 1011.8 |
| 20260502101003 | 7 | 45 | 0.0 | 3.2 | 0.00 | 0.00 | 0.00 | 73 | 1011.8 |
| 20260502100503 | 7 | 45 | 0.0 | 3.2 | 0.00 | 0.00 | 0.00 | 72 | 1011.9 |
| 20260502091502 | 7 | 349 | 0.0 | 4.8 | 0.00 | 0.00 | 0.00 | 72 | 1011.6 |
| 20260502091001 | 7 | 347 | 1.6 | 6.4 | 0.00 | 0.00 | 0.00 | 72 | 1011.6 |
| 20260502090502 | 7 | 247 | 4.8 | 6.4 | 0.00 | 0.00 | 0.00 | 71 | 1011.8 |